[[{"header":{"parameterUnit":"m.s-1","parameterCategory":1,"la1":30.2991,"la2":30.254,"lo1":-89.0895,"lo2":-89.0444,"dy":0.0017,"dx":0.0017,"nx":28,"ny":28,"refTime":"2023-10-25T09:00:00:Z","depth":0,"parameterNumber":2,"parameterNumberName":"U-component_of_WINDS"},"data":[0,0,0,0,0,0,0,0,0,0,0,0,0,0,0,0,0,0,0,0,0,0,0,0,0,0,0,0,0,0,0,0,0,0,0,0,0,0,0,0,0,0,0,0,0,0,0,0,0,0,0,0,0,0,0,0,0,0,-6.3156,-6.3157,0,-6.3213,-6.3213,-6.3214,-6.3088,-6.3084,-6.308,-6.3076,-6.3131,-6.3136,-6.3141,0,0,0,0,0,0,0,0,0,0,0,0,0,-6.2937,-6.2942,-6.3156,-6.3157,-6.3158,-6.3212,-6.3213,-6.3214,-6.3089,-6.3084,-6.3079,-6.3074,-6.3129,-6.3135,-6.3142,0,0,0,0,0,0,0,0,0,0,0,0,0,-6.3017,-6.2944,-6.3156,-6.3102,-6.3097,-6.3212,-6.3213,-6.3214,-6.309,-6.3084,-6.3078,-6.3072,-6.3127,-6.3135,-6.3142,-6.3312,0,0,-6.3166,-6.317,0,0,0,0,0,0,0,0,-6.3013,-6.3025,-6.3109,-6.3106,-6.3101,-6.3137,-6.3156,-6.3247,-6.3091,-6.3093,-6.3076,-6.3069,-6.3138,-6.3144,-6.3168,-6.3314,-6.3317,-6.3167,-6.3172,-6.3175,-6.3177,0,0,0,0,0,0,0,-6.3007,-6.3022,-6.3178,-6.311,-6.3106,-6.3074,-6.3078,-6.3173,-6.3148,-6.3092,-6.3083,-6.3092,-6.3134,-6.3161,-6.3168,-6.3317,-6.3167,-6.3174,-6.3179,-6.3182,-6.3604,-6.3611,0,0,0,0,0,0,-6.3009,-6.3018,-6.3176,-6.318,-6.3041,-6.3083,-6.3088,-6.3132,-6.3147,-6.3143,-6.3097,-6.3086,-6.315,-6.3159,-6.317,-6.3367,-6.3175,-6.3182,-6.3187,-6.3598,-6.3606,-6.3613,0,0,0,0,0,0,-6.3005,-6.3024,-6.3174,-6.3097,-6.3113,-6.3093,-6.3143,-6.3136,-6.3162,-6.315,-6.3145,-6.3128,-6.3146,-6.3159,-6.3277,-6.3367,-6.3186,-6.3193,-6.359,-6.36,-6.3609,-6.3765,0,0,0,0,0,0,-6.2999,-6.3024,-6.3088,-6.3099,-6.3118,-6.3282,-6.3149,-6.3141,-6.3176,-6.3162,-6.3179,-6.3176,-6.3142,-6.3266,-6.3285,-6.3375,-6.3199,-6.3582,-6.3595,-6.3606,-6.3752,-6.3779,-6.3802,0,0,0,0,0,-6.2992,-6.3129,-6.3092,-6.3112,-6.3198,-6.3287,-6.3298,-6.3257,-6.3184,-6.3248,-6.3241,-6.3175,-6.3356,-6.328,-6.33,-6.3393,-6.3576,-6.3591,-6.3605,-6.374,-6.3774,-6.3802,0,0,0,0,0,0,-6.3127,-6.3129,-6.3088,-6.3234,-6.3262,-6.3266,-6.3345,-6.3294,-6.3342,-6.3327,-6.3274,-6.3279,-6.3407,-6.3412,-6.3328,-6.3557,-6.3453,-6.3473,-6.3549,-6.358,-6.3605,-6.36,-6.3206,0,0,0,0,0,-6.3175,-6.3248,-6.3245,-6.3374,-6.339,-6.3366,-6.3403,-6.337,-6.3396,-6.3407,-6.3408,-6.3435,-6.3498,-6.354,-6.3597,-6.3753,-6.3754,-6.3828,-6.3853,-6.3874,-6.389,-6.3972,-6.4004,-6.3661,-6.3661,-6.3661,0,0,-6.3272,-6.3282,-6.3331,-6.3401,-6.3419,-6.3494,-6.3376,-6.3461,-6.3516,-6.3419,-6.353,-6.3534,-6.356,-6.3698,-6.3759,-6.3706,-6.3986,-6.3893,-6.3909,-6.3914,-6.399,-6.4023,-6.4052,-6.3671,-6.3669,-6.3668,0,0,-6.3487,-6.3504,-6.3612,-6.3632,-6.3661,-6.3645,-6.3671,-6.3684,-6.3682,-6.3794,-6.3722,-6.3788,-6.3897,-6.3919,-6.3944,-6.4171,-6.4111,-6.4191,-6.4322,-6.4402,-6.4429,-6.4453,-6.4531,-6.4561,-6.4208,-6.4209,-6.4209,0,-6.3604,-6.3716,-6.3673,-6.3764,-6.3796,-6.3714,-6.3822,-6.3844,-6.389,-6.3914,-6.3855,-6.3991,-6.4003,-6.4144,-6.42,-6.4224,-6.4251,-6.4187,-6.4429,-6.4452,-6.4474,-6.4548,-6.4578,-6.4218,-6.4217,-6.4216,-6.4215,0,-6.3857,-6.3936,-6.402,-6.4067,-6.411,-6.4209,-6.418,-6.4228,-6.4193,-6.4183,-6.4297,-6.431,-6.4368,-6.44,-6.4365,-6.4536,-6.4503,-6.4438,-6.4331,-6.4516,-6.4585,-6.4613,-6.4231,-6.4228,-6.4225,-6.4223,0,0,-6.4156,-6.418,-6.4212,-6.4232,-6.4259,-6.4319,-6.4415,-6.4472,-6.4514,-6.4549,-6.4626,-6.4722,-6.4663,-6.4692,-6.466,-6.4731,-6.4907,-6.4656,-6.4656,-6.47,-6.5095,-6.5141,-6.5175,-6.487,-6.4875,-6.4879,-6.5092,0,-6.4367,-6.4531,-6.4497,-6.4658,-6.4729,-6.4654,-6.4737,-6.4762,-6.4756,-6.4816,-6.4808,-6.4876,-6.4793,-6.481,-6.4878,-6.4872,-6.4985,-6.4856,-6.4939,-6.4943,-6.4931,-6.5211,-6.526,-6.546,-6.5118,-6.5123,-6.5126,0,-6.4634,-6.4681,-6.4849,-6.4865,-6.4894,-6.4969,-6.5019,-6.5078,-6.5105,-6.5096,-6.513,-6.5084,-6.5178,-6.5074,-6.5202,-6.5115,-6.5148,-6.515,-6.5157,-6.516,-6.5043,-6.5219,-6.5522,-6.5551,-6.5169,-6.5165,-6.5162,0,-6.4832,-6.4937,-6.5051,-6.5071,-6.5093,-6.5148,-6.516,-6.5181,-6.5218,-6.5263,-6.5286,-6.5341,-6.537,-6.5414,-6.5384,-6.5311,-6.5516,-6.541,-6.5509,-6.551,-6.5552,-6.5549,-6.5862,-6.558,-6.5579,-6.5579,-6.5578,0,-6.5069,-6.5174,-6.514,-6.521,-6.5326,-6.5286,-6.5402,-6.5404,-6.5425,-6.5493,-6.5432,-6.5497,-6.5456,-6.5518,-6.5496,-6.5604,-6.5618,-6.5612,-6.5604,-6.5616,-6.5616,-6.5633,-6.5617,-6.5586,-6.5585,-6.5583,-6.5582,0,-6.5307,-6.5289,-6.5408,-6.542,-6.5426,-6.5511,-6.552,-6.5585,-6.5576,-6.5663,-6.5681,-6.5666,-6.5736,-6.5712,-6.5787,-6.5772,-6.5909,-6.5885,-6.59,-6.5892,-6.5992,-6.5982,-6.6324,-6.6366,-6.606,-6.6063,-6.6065,0,-6.5458,-6.5537,-6.5559,-6.5601,-6.5617,-6.5686,-6.5724,-6.5689,-6.5731,-6.5769,-6.5829,-6.5894,-6.5943,-6.6059,-6.6054,-6.6111,-6.6085,-6.6202,-6.6093,-6.6102,-6.6084,-6.6078,-6.6085,-6.6222,-6.6225,-6.6228,-6.6231,0,-6.5726,-6.5714,-6.5772,-6.5828,-6.5875,-6.5917,-6.5953,-6.5991,-6.5957,-6.6008,-6.6079,-6.6118,-6.6195,-6.626,-6.6312,-6.6322,-6.6271,-6.6266,-6.6291,-6.6302,-6.6306,-6.6302,-6.5955,-6.6257,-6.6254,-6.6252,-6.6251,-6.625,-6.5923,-6.599,-6.6016,-6.6083,-6.6107,-6.6142,-6.6204,-6.6203,-6.6262,-6.6322,-6.6298,-6.638,-6.6406,-6.647,-6.6489,-6.6552,-6.6507,-6.6544,-6.6553,-6.6562,-6.6574,-6.63,-6.6562,-6.6561,-6.656,-6.656,-6.6559,0,-6.6186,-6.62,-6.6262,-6.6315,-6.6367,-6.6318,-6.6355,-6.6402,-6.6475,-6.6504,-6.6555,-6.6637,-6.67,-6.6702,-6.676,-6.681,-6.6788,-6.6827,-6.682,-6.6824,-6.6612,-6.6583,-6.6843,-6.6843,-6.6843,-6.6843,-6.6843,-6.6843,-6.6329,-6.6439,-6.643,-6.6552,-6.6564,-6.6645,-6.667,-6.6703,-6.6726,-6.6821,-6.6873,-6.6874,-6.6892,-6.6952,-6.7007,-6.7006,-6.7029,-6.7076,-6.7066,-6.6867,-6.6839,-6.6811,-6.6784,-6.7082,-6.7082,-6.7271,-6.7273,-6.7274]},{"header":{"parameterUnit":"m.s-1","parameterCategory":1,"la1":30.2991,"la2":30.254,"lo1":-89.0895,"lo2":-89.0444,"dy":0.0017,"dx":0.0017,"nx":28,"ny":28,"refTime":"2023-10-25T09:00:00:Z","depth":0,"parameterNumber":3,"parameterNumberName":"V-component_of_WINDS"},"data":[0,0,0,0,0,0,0,0,0,0,0,0,0,0,0,0,0,0,0,0,0,0,0,0,0,0,0,0,0,0,0,0,0,0,0,0,0,0,0,0,0,0,0,0,0,0,0,0,0,0,0,0,0,0,0,0,0,0,1.8712,1.8712,0,1.8753,1.8753,1.8754,1.8729,1.8728,1.8727,1.8726,1.8767,1.8769,1.8771,0,0,0,0,0,0,0,0,0,0,0,0,0,1.8612,1.8614,1.8712,1.8712,1.8713,1.8753,1.8753,1.8754,1.873,1.8728,1.8727,1.8725,1.8766,1.8768,1.8771,0,0,0,0,0,0,0,0,0,0,0,0,0,1.8654,1.8614,1.8711,1.8705,1.8705,1.8753,1.8753,1.8754,1.873,1.8728,1.8726,1.8725,1.8765,1.8768,1.8771,1.8827,0,0,1.8781,1.8783,0,0,0,0,0,0,0,0,1.8652,1.8658,1.8706,1.8706,1.8706,1.8734,1.8733,1.8778,1.873,1.872,1.8726,1.8724,1.8757,1.8761,1.8773,1.8829,1.883,1.8782,1.8784,1.8785,1.8786,0,0,0,0,0,0,0,1.8649,1.8656,1.8728,1.8706,1.8706,1.8701,1.8705,1.8742,1.8748,1.8721,1.872,1.8725,1.8757,1.8769,1.8773,1.8831,1.8782,1.8785,1.8787,1.8788,1.8938,1.894,0,0,0,0,0,0,1.8647,1.8654,1.8727,1.8729,1.8674,1.8704,1.8708,1.8727,1.8748,1.8749,1.8726,1.8724,1.8765,1.877,1.8775,1.8843,1.8785,1.8788,1.879,1.8936,1.8938,1.894,0,0,0,0,0,0,1.8644,1.8653,1.8725,1.8691,1.87,1.8707,1.8728,1.8729,1.8741,1.8752,1.8753,1.8738,1.8764,1.877,1.8815,1.8844,1.879,1.8793,1.8933,1.8937,1.8939,1.8978,0,0,0,0,0,0,1.8642,1.8653,1.8673,1.8692,1.8702,1.8764,1.873,1.8731,1.8747,1.8744,1.8763,1.8764,1.8763,1.881,1.8818,1.8847,1.8795,1.8931,1.8935,1.8938,1.8974,1.8982,1.8988,0,0,0,0,0,1.8638,1.8682,1.8675,1.8683,1.8728,1.8766,1.8772,1.8769,1.8749,1.8771,1.8778,1.8764,1.8839,1.8815,1.8824,1.8854,1.8929,1.8934,1.8938,1.8971,1.898,1.8988,0,0,0,0,0,0,1.8665,1.8684,1.8676,1.8727,1.8745,1.8762,1.8788,1.8779,1.8803,1.8799,1.8795,1.8799,1.8846,1.8855,1.8827,1.891,1.8881,1.8888,1.8903,1.8912,1.8919,1.8916,1.8798,0,0,0,0,0,1.8677,1.8707,1.8721,1.8765,1.8774,1.878,1.8796,1.8794,1.8812,1.8819,1.883,1.8848,1.8876,1.8894,1.8921,1.8975,1.898,1.9001,1.9008,1.9014,1.902,1.9051,1.9061,1.8955,1.8955,1.8955,0,0,1.8702,1.8716,1.8734,1.877,1.8784,1.8816,1.8786,1.882,1.8843,1.8824,1.8868,1.8876,1.8897,1.8947,1.897,1.8956,1.905,1.902,1.9025,1.9027,1.9057,1.9067,1.9076,1.8958,1.8958,1.8957,0,0,1.8762,1.8776,1.8814,1.883,1.8852,1.8856,1.8865,1.8884,1.8889,1.8933,1.892,1.8948,1.8996,1.9012,1.9026,1.9097,1.9085,1.9106,1.9143,1.9174,1.9183,1.919,1.9216,1.9226,1.9111,1.9111,1.9111,0,1.879,1.8837,1.8835,1.8871,1.8888,1.8874,1.8913,1.8928,1.8957,1.897,1.8953,1.9015,1.9028,1.9083,1.9101,1.9112,1.9124,1.9103,1.9182,1.9189,1.9196,1.9221,1.9231,1.9114,1.9114,1.9113,1.9113,0,1.887,1.8903,1.8932,1.8962,1.8982,1.902,1.9024,1.9045,1.9041,1.9047,1.9094,1.9109,1.9139,1.9152,1.9147,1.9207,1.9198,1.9182,1.9152,1.9208,1.9232,1.9242,1.9117,1.9116,1.9116,1.9115,0,0,1.8947,1.8978,1.8989,1.9004,1.9029,1.9054,1.9092,1.9122,1.9141,1.9163,1.9195,1.9237,1.9224,1.924,1.9238,1.9265,1.9322,1.9246,1.9246,1.926,1.9391,1.9403,1.9414,1.9315,1.9317,1.9318,1.939,0,1.901,1.9076,1.9078,1.9138,1.917,1.9159,1.9192,1.9211,1.9218,1.9246,1.9254,1.9285,1.9264,1.9274,1.93,1.931,1.9348,1.9304,1.9345,1.9347,1.9341,1.9426,1.9439,1.9505,1.9399,1.94,1.9401,0,1.9092,1.9118,1.9183,1.9206,1.9219,1.9249,1.9279,1.9305,1.9327,1.9331,1.9351,1.9346,1.9385,1.9355,1.941,1.938,1.9398,1.9405,1.9407,1.9411,1.9377,1.9433,1.9526,1.9536,1.9416,1.9415,1.9413,0,1.9143,1.9194,1.924,1.9253,1.9281,1.9302,1.9315,1.9335,1.9355,1.9381,1.9394,1.9424,1.944,1.9464,1.9467,1.9445,1.9523,1.9493,1.9528,1.9528,1.9544,1.9543,1.9642,1.9555,1.9555,1.9555,1.9554,0,1.9214,1.9254,1.9264,1.9292,1.9337,1.9339,1.9384,1.9395,1.9414,1.9445,1.9437,1.9465,1.9468,1.9498,1.9501,1.9547,1.9554,1.9559,1.9559,1.956,1.9559,1.9571,1.9566,1.9557,1.9557,1.9556,1.9556,0,1.9277,1.9286,1.9335,1.9359,1.9366,1.9398,1.9418,1.9446,1.9453,1.9492,1.9502,1.9514,1.9549,1.9555,1.9596,1.9598,1.9654,1.9649,1.9646,1.9646,1.9681,1.9678,1.9791,1.9806,1.9708,1.9709,1.971,0,1.9322,1.9353,1.9381,1.9401,1.9415,1.9448,1.9469,1.9472,1.9494,1.9524,1.9548,1.9583,1.9611,1.9668,1.968,1.9713,1.9709,1.9746,1.9713,1.9714,1.9711,1.9709,1.9713,1.9753,1.9754,1.9754,1.9755,0,1.9401,1.9404,1.9434,1.9467,1.9492,1.9518,1.9542,1.9559,1.9566,1.9591,1.9628,1.965,1.9693,1.9728,1.9761,1.9774,1.9767,1.9766,1.9776,1.9776,1.9774,1.9777,1.9664,1.9763,1.9762,1.9761,1.9761,1.9761,1.9457,1.9485,1.9509,1.9544,1.9563,1.9587,1.9615,1.9627,1.9658,1.9694,1.9695,1.9735,1.9759,1.9803,1.9818,1.9851,1.9839,1.9852,1.9856,1.986,1.9864,1.9769,1.9856,1.9856,1.9856,1.9856,1.9856,0,1.9536,1.9552,1.9584,1.9619,1.9647,1.9639,1.9666,1.969,1.9726,1.9749,1.9778,1.9822,1.9856,1.9873,1.9907,1.993,1.9928,1.9939,1.9938,1.9941,1.9872,1.986,1.9941,1.9941,1.9941,1.9941,1.9941,1.9941,1.958,1.9628,1.9635,1.9693,1.9708,1.9749,1.9766,1.9788,1.9807,1.9856,1.9886,1.9897,1.9918,1.9955,1.9987,1.9991,2.0004,2.0018,2.002,1.9955,1.9946,1.9938,1.9927,2.002,2.002,2.0087,2.0088,2.0088]}]]